Weather History for Ithaca, NY

Change the Weather History Date:

Saturday, June 2, 2012

  Actual Average Record
Temperature  
Mean Temperature 58 °F -  
Max Temperature 63 °F 71 °F 95 °F (1934)
Min Temperature 52 °F 49 °F 34 °F (1927)
Degree Days  
Heating Degree Days 8    
Growing Degree Days 8 (Base 50)    
Moisture  
Dew Point 51 °F    
Average Humidity 79    
Maximum Humidity 100    
Minimum Humidity 50    
Precipitation  
Precipitation 0.00 in - - ()
Sea Level Pressure  
Sea Level Pressure 29.73 in    
Wind  
Wind Speed 7 mph (SW)    
Max Wind Speed 13 mph    
Max Gust Speed -    
Visibility 9 miles    
Events Rain    
Averages and records for this station are not official NWS values.
T = Trace of Precipitation, MM = Missing Value Source: NWS Daily Summary

Daily Weather History Graph

Daily Weather History Graph

Search for Another Location

Airport:

Trip Planner

Search our weather history database for the weather conditions in past years. The results will help you decide how hot, cold, wet, or windy it might be!

Date:

Astronomy

Jun. 02, 2012 Rise Set
Actual Time 5:30 AM EDT 8:37 PM EDT
Civil Twilight 4:56 AM EDT 9:11 PM EDT
Nautical Twilight 4:12 AM EDT 9:55 PM EDT
Astronomical Twilight 3:20 AM EDT 10:48 PM EDT
Moon 6:49 PM EDT (6/2) 3:49 AM EDT (6/2)
Length of Visible Light 16h 15m
Length of Day
15h 07m
Waxing Gibbous, 95% of the Moon is Illuminated
Jun 2
Waxing Gibbous
Jun 4
Full
Jun 11
Last Quarter
Jun 19
New
Jun 26
First Quarter

Hourly Weather History & Observations

Time (EDT) Temp. Dew Point Humidity Pressure Visibility Wind Dir Wind Speed Gust Speed Precip Events Conditions
12:56 AM 59.0 °F 56.8 °F 93% 29.68 in 10.0 mi South 11.5 mph - 0.00 in Rain Light Rain
1:15 AM 59.0 °F 57.2 °F 94% 29.69 in 10.0 mi SSW 6.9 mph - 0.00 in   Overcast
1:18 AM 59.0 °F 57.2 °F 94% 29.69 in 10.0 mi South 5.8 mph - 0.00 in Rain Light Rain
1:56 AM 59.0 °F 57.9 °F 96% 29.69 in 3.0 mi South 6.9 mph - 0.00 in Rain Rain
2:03 AM 57.2 °F 57.2 °F 100% 29.69 in 2.5 mi SE 6.9 mph - 0.00 in Rain Light Rain
2:09 AM 57.2 °F 57.2 °F 100% 29.69 in 3.0 mi SE 6.9 mph - 0.00 in Rain Light Rain
2:56 AM 57.9 °F 57.9 °F 100% 29.66 in 6.0 mi ESE 5.8 mph - 0.00 in Rain Light Rain
3:56 AM 57.9 °F 57.9 °F 100% 29.66 in 9.0 mi SSE 6.9 mph - 0.00 in Rain Light Rain
4:16 AM 57.2 °F 57.2 °F 100% 29.68 in 10.0 mi West 4.6 mph - 0.00 in   Overcast
4:24 AM 57.2 °F 57.2 °F 100% 29.68 in 7.0 mi West 4.6 mph - 0.00 in Rain Light Rain
4:48 AM 57.2 °F 55.4 °F 94% 29.68 in 5.0 mi West 6.9 mph - 0.00 in Rain Light Rain
4:56 AM 56.8 °F 55.9 °F 97% 29.68 in 6.0 mi West 6.9 mph - 0.00 in Rain Light Rain
5:04 AM 57.2 °F 55.4 °F 94% 29.69 in 6.0 mi WSW 11.5 mph - 0.00 in Rain Light Rain
5:12 AM 55.4 °F 51.8 °F 88% 29.69 in 10.0 mi WSW 9.2 mph - 0.00 in Rain Light Rain
5:56 AM 54.9 °F 50.9 °F 86% 29.71 in 10.0 mi WSW 3.5 mph - 0.00 in   Overcast
6:28 AM 55.4 °F 51.8 °F 88% 29.72 in 10.0 mi SW 4.6 mph - N/A   Mostly Cloudy
6:56 AM 54.9 °F 50.9 °F 86% 29.73 in 10.0 mi WSW 6.9 mph - N/A   Mostly Cloudy
7:56 AM 57.9 °F 50.9 °F 77% 29.74 in 10.0 mi SSW 5.8 mph - N/A   Mostly Cloudy
8:56 AM 61.0 °F 48.9 °F 64% 29.74 in 10.0 mi WSW 9.2 mph - N/A   Scattered Clouds
9:56 AM 61.0 °F 46.9 °F 60% 29.75 in 10.0 mi WSW 9.2 mph - N/A   Mostly Cloudy
10:56 AM 59.0 °F 46.9 °F 64% 29.76 in 10.0 mi West 9.2 mph - N/A   Overcast
11:56 AM 59.0 °F 46.9 °F 64% 29.76 in 10.0 mi West 12.7 mph - N/A   Overcast
12:07 PM 59.0 °F 46.4 °F 63% 29.77 in 10.0 mi West 12.7 mph - N/A   Overcast
12:56 PM 59.9 °F 46.9 °F 62% 29.77 in 10.0 mi WSW 6.9 mph - N/A   Overcast
1:56 PM 61.9 °F 43.9 °F 52% 29.77 in 10.0 mi West 12.7 mph - N/A   Mostly Cloudy
2:56 PM 61.9 °F 45.9 °F 56% 29.77 in 10.0 mi West 8.1 mph - N/A   Overcast
3:56 PM 63.0 °F 43.9 °F 50% 29.76 in 10.0 mi West 8.1 mph - N/A   Scattered Clouds
4:56 PM 63.0 °F 45.9 °F 54% 29.77 in 10.0 mi West 5.8 mph - N/A   Overcast
5:56 PM 61.9 °F 43.9 °F 52% 29.77 in 10.0 mi Calm Calm - N/A   Mostly Cloudy
6:56 PM 61.0 °F 47.8 °F 62% 29.76 in 10.0 mi East 3.5 mph - N/A   Scattered Clouds
7:56 PM 57.9 °F 50.0 °F 75% 29.75 in 10.0 mi Calm Calm - N/A   Scattered Clouds
8:56 PM 55.9 °F 46.9 °F 72% 29.76 in 10.0 mi ESE 3.5 mph - N/A   Mostly Cloudy
9:56 PM 54.9 °F 46.9 °F 75% 29.77 in 10.0 mi SE 4.6 mph - N/A   Clear
10:56 PM 52.9 °F 45.9 °F 77% 29.78 in 10.0 mi SSE 5.8 mph - N/A   Partly Cloudy
11:56 PM 52.0 °F 45.9 °F 80% 29.78 in 10.0 mi SE 4.6 mph - N/A   Clear